Year,Month,Day,Hour,Minute,Value (Times are PST for temperature in C)
2009,06,01,00,00,15.10
2009,06,01,00,01,15.00
2009,06,01,00,02,15.00
2009,06,01,00,03,15.00
2009,06,01,00,04,15.00
2009,06,01,00,05,15.00
2009,06,01,00,06,15.00
2009,06,01,00,07,15.00
2009,06,01,00,08,15.00
2009,06,01,00,09,15.00
2009,06,01,00,10,14.90
2009,06,01,00,11,14.90
2009,06,01,00,12,14.80
2009,06,01,00,13,14.80
2009,06,01,00,14,14.80
2009,06,01,00,15,14.70
2009,06,01,00,16,14.70
2009,06,01,00,17,14.60
2009,06,01,00,18,14.60
2009,06,01,00,19,14.60
2009,06,01,00,20,14.60
2009,06,01,00,21,14.50
2009,06,01,00,22,14.50
2009,06,01,00,23,14.50
2009,06,01,00,24,14.40
2009,06,01,00,25,14.40
2009,06,01,00,26,14.40
2009,06,01,00,27,14.30
2009,06,01,00,28,14.30
2009,06,01,00,29,14.30
2009,06,01,00,30,14.30
2009,06,01,00,31,14.20
2009,06,01,00,32,14.20
2009,06,01,00,33,14.20
2009,06,01,00,34,14.20
2009,06,01,00,35,14.20
2009,06,01,00,36,14.20
2009,06,01,00,37,14.20
2009,06,01,00,38,14.20
2009,06,01,00,39,14.20
2009,06,01,00,40,14.20
2009,06,01,00,41,14.20
2009,06,01,00,42,14.20
2009,06,01,00,43,14.20
2009,06,01,00,44,14.20
2009,06,01,00,45,14.20
2009,06,01,00,46,14.20
2009,06,01,00,47,14.20
2009,06,01,00,48,14.20
2009,06,01,00,49,14.20
2009,06,01,00,50,14.20
2009,06,01,00,51,14.20
2009,06,01,00,52,14.20
2009,06,01,00,53,14.30
2009,06,01,00,54,14.30
2009,06,01,00,55,14.30
2009,06,01,00,56,14.30
2009,06,01,00,57,14.30
2009,06,01,00,58,14.30
2009,06,01,00,59,14.30
2009,06,01,01,00,14.30
2009,06,01,01,01,14.30
2009,06,01,01,02,14.30
2009,06,01,01,03,14.30
2009,06,01,01,04,14.30
2009,06,01,01,05,14.30
2009,06,01,01,06,14.30
2009,06,01,01,07,14.30
2009,06,01,01,08,14.30
2009,06,01,01,09,14.30
2009,06,01,01,10,14.30
2009,06,01,01,11,14.30
2009,06,01,01,12,14.30
2009,06,01,01,13,14.30
2009,06,01,01,14,14.30
2009,06,01,01,15,14.30
2009,06,01,01,16,14.40
2009,06,01,01,17,14.40
2009,06,01,01,18,14.40
2009,06,01,01,19,14.40
2009,06,01,01,20,14.40
2009,06,01,01,21,14.40
2009,06,01,01,22,14.40
2009,06,01,01,23,14.40
2009,06,01,01,24,14.40
2009,06,01,01,25,14.40
2009,06,01,01,26,14.40
2009,06,01,01,27,14.40
2009,06,01,01,28,14.40
2009,06,01,01,29,14.30
2009,06,01,01,30,14.30
2009,06,01,01,31,14.30
2009,06,01,01,32,14.30
2009,06,01,01,33,14.20
2009,06,01,01,34,14.20
2009,06,01,01,35,14.20
2009,06,01,01,36,14.20
2009,06,01,01,37,14.20
2009,06,01,01,38,14.20
2009,06,01,01,39,14.20
2009,06,01,01,40,14.20
2009,06,01,01,41,14.20
2009,06,01,01,42,14.20
2009,06,01,01,43,14.20
2009,06,01,01,44,14.20
2009,06,01,01,45,14.30
2009,06,01,01,46,14.30
2009,06,01,01,47,14.30
2009,06,01,01,48,14.30
2009,06,01,01,49,14.30
2009,06,01,01,50,14.30
2009,06,01,01,51,14.30
2009,06,01,01,52,14.30
2009,06,01,01,53,14.30
2009,06,01,01,54,14.40
2009,06,01,01,55,14.40
2009,06,01,01,56,14.40
2009,06,01,01,57,14.40
2009,06,01,01,58,14.40
2009,06,01,01,59,14.40
2009,06,01,02,00,14.40
2009,06,01,02,01,14.40
2009,06,01,02,02,14.40
2009,06,01,02,03,14.40
2009,06,01,02,04,14.40
2009,06,01,02,05,14.40
2009,06,01,02,06,14.40
2009,06,01,02,07,14.40
2009,06,01,02,08,14.40
2009,06,01,02,09,14.40
2009,06,01,02,10,14.40
2009,06,01,02,11,14.40
2009,06,01,02,12,14.40
2009,06,01,02,13,14.30
2009,06,01,02,14,14.30
2009,06,01,02,15,14.30
2009,06,01,02,16,14.30
2009,06,01,02,17,14.20
2009,06,01,02,18,14.20
2009,06,01,02,19,14.20
2009,06,01,02,20,14.20
2009,06,01,02,21,14.10
2009,06,01,02,22,14.10
2009,06,01,02,23,14.10
2009,06,01,02,24,14.00
2009,06,01,02,25,14.00
2009,06,01,02,26,14.00
2009,06,01,02,27,14.00
2009,06,01,02,28,14.00
2009,06,01,02,29,13.90
2009,06,01,02,30,13.90
2009,06,01,02,31,13.90
2009,06,01,02,32,13.90
2009,06,01,02,33,13.90
2009,06,01,02,34,13.90
2009,06,01,02,35,13.90
2009,06,01,02,36,13.90
2009,06,01,02,37,13.90
2009,06,01,02,38,13.80
2009,06,01,02,39,13.80
2009,06,01,02,40,13.80
2009,06,01,02,41,13.80
2009,06,01,02,42,13.80
2009,06,01,02,43,13.80
2009,06,01,02,44,13.80
2009,06,01,02,45,13.80
2009,06,01,02,46,13.80
2009,06,01,02,47,13.80
2009,06,01,02,48,13.80
2009,06,01,02,49,13.80
2009,06,01,02,50,13.80
2009,06,01,02,51,13.80
2009,06,01,02,52,13.80
2009,06,01,02,53,13.80
2009,06,01,02,54,13.80
2009,06,01,02,55,13.80
2009,06,01,02,56,13.80
2009,06,01,02,57,13.80
2009,06,01,02,58,13.80
2009,06,01,02,59,13.80
2009,06,01,03,00,13.80
2009,06,01,03,01,13.80
2009,06,01,03,02,13.90
2009,06,01,03,03,13.90
2009,06,01,03,04,13.90
2009,06,01,03,05,13.90
2009,06,01,03,06,13.90
2009,06,01,03,07,13.90
2009,06,01,03,08,13.90
2009,06,01,03,09,13.90
2009,06,01,03,10,13.80
2009,06,01,03,11,13.80
2009,06,01,03,12,13.80
2009,06,01,03,13,13.80
2009,06,01,03,14,13.80
2009,06,01,03,15,13.80
2009,06,01,03,16,13.80
2009,06,01,03,17,13.70
2009,06,01,03,18,13.70
2009,06,01,03,19,13.70
2009,06,01,03,20,13.70
2009,06,01,03,21,13.70
2009,06,01,03,22,13.70
2009,06,01,03,23,13.60
2009,06,01,03,24,13.60
2009,06,01,03,25,13.60
2009,06,01,03,26,13.60
2009,06,01,03,27,13.60
2009,06,01,03,28,13.50
2009,06,01,03,29,13.50
2009,06,01,03,30,13.50
2009,06,01,03,31,13.50
2009,06,01,03,32,13.40
2009,06,01,03,33,13.40
2009,06,01,03,34,13.40
2009,06,01,03,35,13.40
2009,06,01,03,36,13.30
2009,06,01,03,37,13.30
2009,06,01,03,38,13.30
2009,06,01,03,39,13.30
2009,06,01,03,40,13.30
2009,06,01,03,41,13.20
2009,06,01,03,42,13.20
2009,06,01,03,43,13.20
2009,06,01,03,44,13.20
2009,06,01,03,45,13.10
2009,06,01,03,46,13.10
2009,06,01,03,47,13.10
2009,06,01,03,48,13.10
2009,06,01,03,49,13.00
2009,06,01,03,50,13.00
2009,06,01,03,51,13.00
2009,06,01,03,52,12.90
2009,06,01,03,53,12.90
2009,06,01,03,54,12.90
2009,06,01,03,55,12.90
2009,06,01,03,56,12.90
2009,06,01,03,57,12.80
2009,06,01,03,58,12.80
2009,06,01,03,59,12.80
2009,06,01,04,00,12.80
2009,06,01,04,01,12.80
2009,06,01,04,02,12.80
2009,06,01,04,03,12.70
2009,06,01,04,04,12.70
2009,06,01,04,05,12.70
2009,06,01,04,06,12.70
2009,06,01,04,07,12.70
2009,06,01,04,08,12.60
2009,06,01,04,09,12.60
2009,06,01,04,10,12.50
2009,06,01,04,11,12.50
2009,06,01,04,12,12.50
2009,06,01,04,13,12.40
2009,06,01,04,14,12.40
2009,06,01,04,15,12.40
2009,06,01,04,16,12.40
2009,06,01,04,17,12.40
2009,06,01,04,18,12.40
2009,06,01,04,19,12.40
2009,06,01,04,20,12.40
2009,06,01,04,21,12.40
2009,06,01,04,22,12.40
2009,06,01,04,23,12.40
2009,06,01,04,24,12.40
2009,06,01,04,25,12.40
2009,06,01,04,26,12.40
2009,06,01,04,27,12.40
2009,06,01,04,28,12.40
2009,06,01,04,29,12.40
2009,06,01,04,30,12.40
2009,06,01,04,31,12.40
2009,06,01,04,32,12.40
2009,06,01,04,33,12.50
2009,06,01,04,34,12.50
2009,06,01,04,35,12.50
2009,06,01,04,36,12.60
2009,06,01,04,37,12.60
2009,06,01,04,38,12.60
2009,06,01,04,39,12.60
2009,06,01,04,40,12.60
2009,06,01,04,41,12.60
2009,06,01,04,42,12.70
2009,06,01,04,43,12.70
2009,06,01,04,44,12.70
2009,06,01,04,45,12.70
2009,06,01,04,46,12.70
2009,06,01,04,47,12.70
2009,06,01,04,48,12.70
2009,06,01,04,49,12.70
2009,06,01,04,50,12.70
2009,06,01,04,51,12.70
2009,06,01,04,52,12.70
2009,06,01,04,53,12.70
2009,06,01,04,54,12.70
2009,06,01,04,55,12.70
2009,06,01,04,56,12.70
2009,06,01,04,57,12.60
2009,06,01,04,58,12.60
2009,06,01,04,59,12.60
2009,06,01,05,00,12.60
2009,06,01,05,01,12.60
2009,06,01,05,02,12.60
2009,06,01,05,03,12.60
2009,06,01,05,04,12.60
2009,06,01,05,05,12.50
2009,06,01,05,06,12.50
2009,06,01,05,07,12.50
2009,06,01,05,08,12.50
2009,06,01,05,09,12.50
2009,06,01,05,10,12.50
2009,06,01,05,11,12.50
2009,06,01,05,12,12.50
2009,06,01,05,13,12.50
2009,06,01,05,14,12.50
2009,06,01,05,15,12.50
2009,06,01,05,16,12.50
2009,06,01,05,17,12.50
2009,06,01,05,18,12.50
2009,06,01,05,19,12.50
2009,06,01,05,20,12.50
2009,06,01,05,21,12.40
2009,06,01,05,22,12.40
2009,06,01,05,23,12.40
2009,06,01,05,24,12.40
2009,06,01,05,25,12.40
2009,06,01,05,26,12.40
2009,06,01,05,27,12.40
2009,06,01,05,28,12.40
2009,06,01,05,29,12.30
2009,06,01,05,30,12.30
2009,06,01,05,31,12.30
2009,06,01,05,32,12.30
2009,06,01,05,33,12.30
2009,06,01,05,34,12.30
2009,06,01,05,35,12.30
2009,06,01,05,36,12.40
2009,06,01,05,37,12.40
2009,06,01,05,38,12.40
2009,06,01,05,39,12.40
2009,06,01,05,40,12.40
2009,06,01,05,41,12.40
2009,06,01,05,42,12.40
2009,06,01,05,43,12.40
2009,06,01,05,44,12.40
2009,06,01,05,45,12.40
2009,06,01,05,46,12.40
2009,06,01,05,47,12.50
2009,06,01,05,48,12.50
2009,06,01,05,49,12.50
2009,06,01,05,50,12.50
2009,06,01,05,51,12.60
2009,06,01,05,52,12.60
2009,06,01,05,53,12.60
2009,06,01,05,54,12.60
2009,06,01,05,55,12.70
2009,06,01,05,56,12.70
2009,06,01,05,57,12.70
2009,06,01,05,58,12.70
2009,06,01,05,59,12.80
2009,06,01,06,00,12.80
2009,06,01,06,01,12.80
2009,06,01,06,02,12.80
2009,06,01,06,03,12.80
2009,06,01,06,04,12.80
2009,06,01,06,05,12.90
2009,06,01,06,06,12.90
2009,06,01,06,07,12.90
2009,06,01,06,08,13.00
2009,06,01,06,09,13.00
2009,06,01,06,10,13.00
2009,06,01,06,11,13.10
2009,06,01,06,12,13.10
2009,06,01,06,13,13.20
2009,06,01,06,14,13.20
2009,06,01,06,15,13.20
2009,06,01,06,16,13.30
2009,06,01,06,17,13.30
2009,06,01,06,18,13.30
2009,06,01,06,19,13.40
2009,06,01,06,20,13.40
2009,06,01,06,21,13.40
2009,06,01,06,22,13.40
2009,06,01,06,23,13.50
2009,06,01,06,24,13.50
2009,06,01,06,25,13.50
2009,06,01,06,26,13.50
2009,06,01,06,27,13.60
2009,06,01,06,28,13.60
2009,06,01,06,29,13.60
2009,06,01,06,30,13.60
2009,06,01,06,31,13.60
2009,06,01,06,32,13.60
2009,06,01,06,33,13.60
2009,06,01,06,34,13.60
2009,06,01,06,35,13.70
2009,06,01,06,36,13.70
2009,06,01,06,37,13.70
2009,06,01,06,38,13.70
2009,06,01,06,39,13.70
2009,06,01,06,40,13.70
2009,06,01,06,41,13.80
2009,06,01,06,42,13.80
2009,06,01,06,43,13.80
2009,06,01,06,44,13.90
2009,06,01,06,45,13.90
2009,06,01,06,46,13.90
2009,06,01,06,47,13.90
2009,06,01,06,48,13.90
2009,06,01,06,49,14.00
2009,06,01,06,50,14.00
2009,06,01,06,51,14.10
2009,06,01,06,52,14.10
2009,06,01,06,53,14.10
2009,06,01,06,54,14.10
2009,06,01,06,55,14.20
2009,06,01,06,56,14.20
2009,06,01,06,57,14.20
2009,06,01,06,58,14.20
2009,06,01,06,59,14.30
2009,06,01,07,00,14.30
2009,06,01,07,01,14.30
2009,06,01,07,02,14.30
2009,06,01,07,03,14.40
2009,06,01,07,04,14.40
2009,06,01,07,05,14.40
2009,06,01,07,06,14.50
2009,06,01,07,07,14.50
2009,06,01,07,08,14.50
2009,06,01,07,09,14.60
2009,06,01,07,10,14.60
2009,06,01,07,11,14.60
2009,06,01,07,12,14.70
2009,06,01,07,13,14.70
2009,06,01,07,14,14.70
2009,06,01,07,15,14.70
2009,06,01,07,16,14.80
2009,06,01,07,17,14.80
2009,06,01,07,18,14.80
2009,06,01,07,19,14.90
2009,06,01,07,20,15.00
2009,06,01,07,21,15.00
2009,06,01,07,22,15.00
2009,06,01,07,23,15.00
2009,06,01,07,24,15.00
2009,06,01,07,25,15.00
2009,06,01,07,26,15.00
2009,06,01,07,27,15.00
2009,06,01,07,28,15.00
2009,06,01,07,29,15.10
2009,06,01,07,30,15.10
2009,06,01,07,31,15.20
2009,06,01,07,32,15.20
2009,06,01,07,33,15.30
2009,06,01,07,34,15.30
2009,06,01,07,35,15.40
2009,06,01,07,36,15.50
2009,06,01,07,37,15.60
2009,06,01,07,38,15.60
2009,06,01,07,39,15.70
2009,06,01,07,40,15.80
2009,06,01,07,41,15.90
2009,06,01,07,42,16.00
2009,06,01,07,43,16.10
2009,06,01,07,44,16.20
2009,06,01,07,45,16.30
2009,06,01,07,46,16.30
2009,06,01,07,47,16.40
2009,06,01,07,48,16.50
2009,06,01,07,49,16.50
2009,06,01,07,50,16.60
2009,06,01,07,51,16.70
2009,06,01,07,52,16.70
2009,06,01,07,53,16.80
2009,06,01,07,54,16.80
2009,06,01,07,55,16.90
2009,06,01,07,56,16.90
2009,06,01,07,57,16.90
2009,06,01,07,58,17.00
2009,06,01,07,59,17.10
2009,06,01,08,00,17.10
2009,06,01,08,01,17.20
2009,06,01,08,02,17.20
2009,06,01,08,03,17.30
2009,06,01,08,04,17.30
2009,06,01,08,05,17.30
2009,06,01,08,06,17.40
2009,06,01,08,07,17.40
2009,06,01,08,08,17.50
2009,06,01,08,09,17.60
2009,06,01,08,10,17.60
2009,06,01,08,11,17.70
2009,06,01,08,12,17.70
2009,06,01,08,13,17.80
2009,06,01,08,14,17.90
2009,06,01,08,15,17.90
2009,06,01,08,16,18.00
2009,06,01,08,17,18.00
2009,06,01,08,18,18.10
2009,06,01,08,19,18.10
2009,06,01,08,20,18.20
2009,06,01,08,21,18.20
2009,06,01,08,22,18.20
2009,06,01,08,23,18.30
2009,06,01,08,24,18.30
2009,06,01,08,25,18.30
2009,06,01,08,26,18.30
2009,06,01,08,27,18.40
2009,06,01,08,28,18.40
2009,06,01,08,29,18.50
2009,06,01,08,30,18.50
2009,06,01,08,31,18.60
2009,06,01,08,32,18.60
2009,06,01,08,33,18.70
2009,06,01,08,34,18.70
2009,06,01,08,35,18.80
2009,06,01,08,36,18.80
2009,06,01,08,37,18.90
2009,06,01,08,38,18.90
2009,06,01,08,39,19.00
2009,06,01,08,40,19.00
2009,06,01,08,41,19.10
2009,06,01,08,42,19.10
2009,06,01,08,43,19.20
2009,06,01,08,44,19.30
2009,06,01,08,45,19.30
2009,06,01,08,46,19.30
2009,06,01,08,47,19.40
2009,06,01,08,48,19.40
2009,06,01,08,49,19.50
2009,06,01,08,50,19.50
2009,06,01,08,51,19.60
2009,06,01,08,52,19.60
2009,06,01,08,53,19.70
2009,06,01,08,54,19.70
2009,06,01,08,55,19.70
2009,06,01,08,56,19.80
2009,06,01,08,57,19.80
2009,06,01,08,58,19.80
2009,06,01,08,59,19.80
2009,06,01,09,00,19.80
2009,06,01,09,01,19.70
2009,06,01,09,02,19.60
2009,06,01,09,03,19.50
2009,06,01,09,04,19.40
2009,06,01,09,05,19.40
2009,06,01,09,06,19.40
2009,06,01,09,07,19.40
2009,06,01,09,08,19.40
2009,06,01,09,09,19.40
2009,06,01,09,10,19.40
2009,06,01,09,11,19.40
2009,06,01,09,12,19.40
2009,06,01,09,13,19.30
2009,06,01,09,14,19.30
2009,06,01,09,15,19.30
2009,06,01,09,16,19.30
2009,06,01,09,17,19.30
2009,06,01,09,18,19.40
2009,06,01,09,19,19.40
2009,06,01,09,20,19.40
2009,06,01,09,21,19.40
2009,06,01,09,22,19.40
2009,06,01,09,23,19.40
2009,06,01,09,24,19.40
2009,06,01,09,25,19.50
2009,06,01,09,26,19.50
2009,06,01,09,27,19.50
2009,06,01,09,28,19.50
2009,06,01,09,29,19.50
2009,06,01,09,30,19.50
2009,06,01,09,31,19.50
2009,06,01,09,32,19.50
2009,06,01,09,33,19.50
2009,06,01,09,34,19.50
2009,06,01,09,35,19.60
2009,06,01,09,36,19.60
2009,06,01,09,37,19.60
2009,06,01,09,38,19.60
2009,06,01,09,39,19.60
2009,06,01,09,40,19.70
2009,06,01,09,41,19.70
2009,06,01,09,42,19.70
2009,06,01,09,43,19.70
2009,06,01,09,44,19.80
2009,06,01,09,45,19.80
2009,06,01,09,46,19.70
2009,06,01,09,47,19.70
2009,06,01,09,48,19.60
2009,06,01,09,49,19.60
2009,06,01,09,50,19.70
2009,06,01,09,51,19.70
2009,06,01,09,52,19.80
2009,06,01,09,53,20.00
2009,06,01,09,54,20.10
2009,06,01,09,55,20.20
2009,06,01,09,56,20.40
2009,06,01,09,57,20.50
2009,06,01,09,58,20.60
2009,06,01,09,59,20.80
2009,06,01,10,00,20.90
2009,06,01,10,01,21.00
2009,06,01,10,02,21.10
2009,06,01,10,03,21.30
2009,06,01,10,04,21.30
2009,06,01,10,05,21.40
2009,06,01,10,06,21.50
2009,06,01,10,07,21.60
2009,06,01,10,08,21.60
2009,06,01,10,09,21.70
2009,06,01,10,10,21.80
2009,06,01,10,11,21.80
2009,06,01,10,12,21.80
2009,06,01,10,13,21.80
2009,06,01,10,14,21.90
2009,06,01,10,15,22.00
2009,06,01,10,16,22.10
2009,06,01,10,17,22.10
2009,06,01,10,18,22.20
2009,06,01,10,19,22.10
2009,06,01,10,20,22.00
2009,06,01,10,21,22.00
2009,06,01,10,22,22.10
2009,06,01,10,23,22.10
2009,06,01,10,24,22.20
2009,06,01,10,25,22.20
2009,06,01,10,26,22.20
2009,06,01,10,27,22.20
2009,06,01,10,28,22.30
2009,06,01,10,29,22.30
2009,06,01,10,30,22.30
2009,06,01,10,31,22.30
2009,06,01,10,32,22.40
2009,06,01,10,33,22.50
2009,06,01,10,34,22.60
2009,06,01,10,35,22.70
2009,06,01,10,36,22.80
2009,06,01,10,37,22.80
2009,06,01,10,38,22.90
2009,06,01,10,39,22.90
2009,06,01,10,40,22.90
2009,06,01,10,41,23.00
2009,06,01,10,42,23.10
2009,06,01,10,43,23.00
2009,06,01,10,44,23.00
2009,06,01,10,45,23.10
2009,06,01,10,46,23.00
2009,06,01,10,47,23.10
2009,06,01,10,48,23.10
2009,06,01,10,49,23.10
2009,06,01,10,50,23.10
2009,06,01,10,51,23.10
2009,06,01,10,52,23.20
2009,06,01,10,53,23.30
2009,06,01,10,54,23.20
2009,06,01,10,55,23.30
2009,06,01,10,56,23.30
2009,06,01,10,57,23.30
2009,06,01,10,58,23.40
2009,06,01,10,59,23.40
2009,06,01,11,00,23.40
2009,06,01,11,01,23.40
2009,06,01,11,02,23.40
2009,06,01,11,03,23.40
2009,06,01,11,04,23.40
2009,06,01,11,05,23.30
2009,06,01,11,06,23.40
2009,06,01,11,07,23.40
2009,06,01,11,08,23.50
2009,06,01,11,09,23.60
2009,06,01,11,10,23.60
2009,06,01,11,11,23.40
2009,06,01,11,12,23.30
2009,06,01,11,13,23.30
2009,06,01,11,14,23.20
2009,06,01,11,15,23.20
2009,06,01,11,16,23.10
2009,06,01,11,17,23.10
2009,06,01,11,18,23.00
2009,06,01,11,19,22.90
2009,06,01,11,20,22.70
2009,06,01,11,21,22.30
2009,06,01,11,22,22.00
2009,06,01,11,23,21.70
2009,06,01,11,24,21.40
2009,06,01,11,25,21.20
2009,06,01,11,26,21.10
2009,06,01,11,27,20.90
2009,06,01,11,28,20.80
2009,06,01,11,29,20.70
2009,06,01,11,30,20.60
2009,06,01,11,31,20.60
2009,06,01,11,32,20.50
2009,06,01,11,33,20.40
2009,06,01,11,34,20.20
2009,06,01,11,35,20.10
2009,06,01,11,36,20.10
2009,06,01,11,37,20.10
2009,06,01,11,38,20.10
2009,06,01,11,39,20.20
2009,06,01,11,40,20.20
2009,06,01,11,41,20.30
2009,06,01,11,42,20.20
2009,06,01,11,43,20.10
2009,06,01,11,44,20.10
2009,06,01,11,45,20.10
2009,06,01,11,46,20.10
2009,06,01,11,47,20.10
2009,06,01,11,48,20.20
2009,06,01,11,49,20.30
2009,06,01,11,50,20.40
2009,06,01,11,51,20.60
2009,06,01,11,52,20.70
2009,06,01,11,53,20.70
2009,06,01,11,54,20.80
2009,06,01,11,55,20.90
2009,06,01,11,56,21.00
2009,06,01,11,57,21.10
2009,06,01,11,58,21.20
2009,06,01,11,59,21.40
2009,06,01,12,00,21.50
2009,06,01,12,01,21.70
2009,06,01,12,02,21.80
2009,06,01,12,03,21.80
2009,06,01,12,04,21.70
2009,06,01,12,05,21.70
2009,06,01,12,06,21.70
2009,06,01,12,07,21.60
2009,06,01,12,08,21.60
2009,06,01,12,09,21.60
2009,06,01,12,10,21.50
2009,06,01,12,11,21.40
2009,06,01,12,12,21.30
2009,06,01,12,13,21.30
2009,06,01,12,14,21.20
2009,06,01,12,15,21.10
2009,06,01,12,16,21.00
2009,06,01,12,17,21.00
2009,06,01,12,18,21.00
2009,06,01,12,19,21.00
2009,06,01,12,20,21.00
2009,06,01,12,21,21.00
2009,06,01,12,22,20.90
2009,06,01,12,23,20.80
2009,06,01,12,24,20.80
2009,06,01,12,25,20.80
2009,06,01,12,26,20.70
2009,06,01,12,27,20.60
2009,06,01,12,28,20.50
2009,06,01,12,29,20.50
2009,06,01,12,30,20.40
2009,06,01,12,31,20.30
2009,06,01,12,32,20.30
2009,06,01,12,33,20.30
2009,06,01,12,34,20.20
2009,06,01,12,35,20.10
2009,06,01,12,36,20.20
2009,06,01,12,37,20.30
2009,06,01,12,38,20.30
2009,06,01,12,39,20.40
2009,06,01,12,40,20.40
2009,06,01,12,41,20.50
2009,06,01,12,42,20.50
2009,06,01,12,43,20.40
2009,06,01,12,44,20.30
2009,06,01,12,45,20.30
2009,06,01,12,46,20.20
2009,06,01,12,47,20.20
2009,06,01,12,48,20.20
2009,06,01,12,49,20.20
2009,06,01,12,50,20.20
2009,06,01,12,51,20.20
2009,06,01,12,52,20.30
2009,06,01,12,53,20.40
2009,06,01,12,54,20.50
2009,06,01,12,55,20.50
2009,06,01,12,56,20.50
2009,06,01,12,57,20.60
2009,06,01,12,58,20.70
2009,06,01,12,59,20.80
2009,06,01,13,00,20.90
2009,06,01,13,01,21.10
2009,06,01,13,02,21.20
2009,06,01,13,03,21.30
2009,06,01,13,04,21.40
2009,06,01,13,05,21.40
2009,06,01,13,06,21.40
2009,06,01,13,07,21.40
2009,06,01,13,08,21.50
2009,06,01,13,09,21.60
2009,06,01,13,10,21.70
2009,06,01,13,11,21.80
2009,06,01,13,12,21.80
2009,06,01,13,13,21.90
2009,06,01,13,14,21.90
2009,06,01,13,15,22.00
2009,06,01,13,16,22.00
2009,06,01,13,17,22.20
2009,06,01,13,18,22.30
2009,06,01,13,19,22.40
2009,06,01,13,20,22.60
2009,06,01,13,21,22.80
2009,06,01,13,22,22.90
2009,06,01,13,23,23.10
2009,06,01,13,24,23.30
2009,06,01,13,25,23.40
2009,06,01,13,26,23.60
2009,06,01,13,27,23.70
2009,06,01,13,28,24.10
2009,06,01,13,29,24.30
2009,06,01,13,30,24.50
2009,06,01,13,31,24.80
2009,06,01,13,32,25.00
2009,06,01,13,33,25.20
2009,06,01,13,34,25.30
2009,06,01,13,35,25.50
2009,06,01,13,36,25.60
2009,06,01,13,37,25.70
2009,06,01,13,38,25.90
2009,06,01,13,39,25.90
2009,06,01,13,40,25.90
2009,06,01,13,41,25.90
2009,06,01,13,42,25.90
2009,06,01,13,43,25.90
2009,06,01,13,44,26.00
2009,06,01,13,45,26.00
2009,06,01,13,46,26.20
2009,06,01,13,47,26.30
2009,06,01,13,48,26.30
2009,06,01,13,49,26.30
2009,06,01,13,50,26.20
2009,06,01,13,51,26.00
2009,06,01,13,52,25.90
2009,06,01,13,53,25.70
2009,06,01,13,54,25.60
2009,06,01,13,55,25.50
2009,06,01,13,56,25.30
2009,06,01,13,57,25.20
2009,06,01,13,58,25.00
2009,06,01,13,59,25.00
2009,06,01,14,00,24.90
2009,06,01,14,01,25.00
2009,06,01,14,02,25.00
2009,06,01,14,03,25.00
2009,06,01,14,04,25.00
2009,06,01,14,05,24.90
2009,06,01,14,06,24.80
2009,06,01,14,07,24.60
2009,06,01,14,08,24.40
2009,06,01,14,09,24.20
2009,06,01,14,10,24.00
2009,06,01,14,11,23.90
2009,06,01,14,12,24.00
2009,06,01,14,13,24.10
2009,06,01,14,14,24.10
2009,06,01,14,15,24.20
2009,06,01,14,16,24.30
2009,06,01,14,17,24.40
2009,06,01,14,18,24.40
2009,06,01,14,19,24.50
2009,06,01,14,20,24.50
2009,06,01,14,21,24.40
2009,06,01,14,22,24.40
2009,06,01,14,23,24.20
2009,06,01,14,24,24.20
2009,06,01,14,25,24.20
2009,06,01,14,26,24.20
2009,06,01,14,27,24.30
2009,06,01,14,28,24.50
2009,06,01,14,29,24.60
2009,06,01,14,30,24.80
2009,06,01,14,31,25.00
2009,06,01,14,32,25.00
2009,06,01,14,33,25.10
2009,06,01,14,34,25.10
2009,06,01,14,35,25.10
2009,06,01,14,36,25.20
2009,06,01,14,37,25.20
2009,06,01,14,38,25.20
2009,06,01,14,39,25.30
2009,06,01,14,40,25.40
2009,06,01,14,41,25.50
2009,06,01,14,42,25.70
2009,06,01,14,43,25.90
2009,06,01,14,44,26.10
2009,06,01,14,45,26.30
2009,06,01,14,46,26.50
2009,06,01,14,47,26.60
2009,06,01,14,48,26.70
2009,06,01,14,49,26.80
2009,06,01,14,50,26.90
2009,06,01,14,51,27.00
2009,06,01,14,52,27.00
2009,06,01,14,53,26.90
2009,06,01,14,54,27.00
2009,06,01,14,55,27.10
2009,06,01,14,56,27.20
2009,06,01,14,57,27.20
2009,06,01,14,58,27.10
2009,06,01,14,59,26.90
2009,06,01,15,00,26.60
2009,06,01,15,01,26.30
2009,06,01,15,02,26.00
2009,06,01,15,03,25.90
2009,06,01,15,04,25.70
2009,06,01,15,05,25.50
2009,06,01,15,06,25.20
2009,06,01,15,07,24.90
2009,06,01,15,08,24.60
2009,06,01,15,09,24.40
2009,06,01,15,10,24.20
2009,06,01,15,11,24.00
2009,06,01,15,12,23.80
2009,06,01,15,13,23.80
2009,06,01,15,14,23.80
2009,06,01,15,15,23.70
2009,06,01,15,16,23.60
2009,06,01,15,17,23.50
2009,06,01,15,18,23.40
2009,06,01,15,19,23.40
2009,06,01,15,20,23.30
2009,06,01,15,21,23.30
2009,06,01,15,22,23.30
2009,06,01,15,23,23.30
2009,06,01,15,24,23.40
2009,06,01,15,25,23.40
2009,06,01,15,26,23.30
2009,06,01,15,27,23.40
2009,06,01,15,28,23.40
2009,06,01,15,29,23.40
2009,06,01,15,30,23.40
2009,06,01,15,31,23.40
2009,06,01,15,32,23.40
2009,06,01,15,33,23.30
2009,06,01,15,34,23.30
2009,06,01,15,35,23.30
2009,06,01,15,36,23.20
2009,06,01,15,37,23.10
2009,06,01,15,38,23.10
2009,06,01,15,39,23.10
2009,06,01,15,40,23.00
2009,06,01,15,41,23.00
2009,06,01,15,42,22.90
2009,06,01,15,43,22.80
2009,06,01,15,44,22.70
2009,06,01,15,45,22.70
2009,06,01,15,46,22.70
2009,06,01,15,47,22.80
2009,06,01,15,48,22.80
2009,06,01,15,49,22.90
2009,06,01,15,50,23.00
2009,06,01,15,51,23.10
2009,06,01,15,52,23.20
2009,06,01,15,53,23.40
2009,06,01,15,54,23.50
2009,06,01,15,55,23.70
2009,06,01,15,56,23.80
2009,06,01,15,57,24.00
2009,06,01,15,58,24.10
2009,06,01,15,59,24.20
2009,06,01,16,00,24.30
2009,06,01,16,01,24.30
2009,06,01,16,02,24.40
2009,06,01,16,03,24.40
2009,06,01,16,04,24.50
2009,06,01,16,05,24.60
2009,06,01,16,06,24.70
2009,06,01,16,07,24.90
2009,06,01,16,08,25.10
2009,06,01,16,09,25.30
2009,06,01,16,10,25.40
2009,06,01,16,11,25.40
2009,06,01,16,12,25.40
2009,06,01,16,13,25.40
2009,06,01,16,14,25.50
2009,06,01,16,15,25.40
2009,06,01,16,16,25.40
2009,06,01,16,17,25.50
2009,06,01,16,18,25.50
2009,06,01,16,19,25.60
2009,06,01,16,20,25.60
2009,06,01,16,21,25.60
2009,06,01,16,22,25.70
2009,06,01,16,23,25.60
2009,06,01,16,24,25.60
2009,06,01,16,25,25.60
2009,06,01,16,26,25.60
2009,06,01,16,27,25.60
2009,06,01,16,28,25.70
2009,06,01,16,29,25.80
2009,06,01,16,30,25.90
2009,06,01,16,31,25.90
2009,06,01,16,32,25.80
2009,06,01,16,33,25.80
2009,06,01,16,34,25.80
2009,06,01,16,35,25.80
2009,06,01,16,36,25.80
2009,06,01,16,37,25.80
2009,06,01,16,38,25.70
2009,06,01,16,39,25.50
2009,06,01,16,40,25.40
2009,06,01,16,41,25.30
2009,06,01,16,42,25.10
2009,06,01,16,43,25.00
2009,06,01,16,44,24.90
2009,06,01,16,45,24.80
2009,06,01,16,46,24.70
2009,06,01,16,47,24.60
2009,06,01,16,48,24.60
2009,06,01,16,49,24.40
2009,06,01,16,50,24.40
2009,06,01,16,51,24.30
2009,06,01,16,52,24.30
2009,06,01,16,53,24.20
2009,06,01,16,54,24.10
2009,06,01,16,55,24.00
2009,06,01,16,56,23.90
2009,06,01,16,57,24.00
2009,06,01,16,58,24.10
2009,06,01,16,59,24.20
2009,06,01,17,00,24.30
2009,06,01,17,01,24.50
2009,06,01,17,02,24.60
2009,06,01,17,03,24.80
2009,06,01,17,04,24.90
2009,06,01,17,05,25.00
2009,06,01,17,06,25.10
2009,06,01,17,07,25.30
2009,06,01,17,08,25.40
2009,06,01,17,09,25.40
2009,06,01,17,10,25.50
2009,06,01,17,11,25.50
2009,06,01,17,12,25.50
2009,06,01,17,13,25.40
2009,06,01,17,14,25.50
2009,06,01,17,15,25.60
2009,06,01,17,16,25.70
2009,06,01,17,17,25.90
2009,06,01,17,18,25.90
2009,06,01,17,19,25.90